HARMALA Weather Reports


Display with metric or nautical units.
time (UTC)temp
F
wind
direction
speed
MPH
gust
MPH
rain 1hr
in
rain 24hr
in
rain mn
in
humidity
%
barometer
mb
20260905082124 58 0.0 0.0 0.00 0.07 0.00 74 994.9
20260905080121 57 0.0 0.0 0.00 0.20 0.00 77 994.9
20260905072450 55 0.0 0.0 0.00 0.20 0.00 98 994.7
20260905070123 52 0.0 0.0 0.00 0.20 0.00 100 994.7
20260905062450 51 0.0 0.0 0.00 0.20 0.00 100 994.6
20260905060451 51 0.0 0.0 0.00 0.20 0.00 100 994.5
20260905054121 51 0.0 0.0 0.00 0.20 0.00 100 994.6
20260905052450 50 0.0 0.0 0.00 0.20 0.00 100 994.6
20260905050450 49 0.0 0.0 0.00 0.20 0.00 100 994.6
20260905044452 47 0.0 0.0 0.00 0.22 0.00 100 994.6
20260905042450 46 0.0 0.0 0.00 0.22 0.00 100 994.7
20260905032451 43 0.0 0.0 0.00 0.22 0.00 100 994.8
20260905030449 43 0.0 0.0 0.00 0.22 0.00 100 994.7
20260905024450 42 0.0 0.0 0.00 0.22 0.00 100 994.8
20260905022120 43 0.0 0.0 0.00 0.22 0.00 100 994.7
20260905014451 40 0.0 0.0 0.00 0.22 0.00 99 994.6
20260905012448 41 0.0 0.0 0.00 0.22 0.00 99 994.7
20260905010450 41 0.0 0.0 0.00 0.22 0.00 99 994.7
20260905004450 41 0.0 0.0 0.00 0.22 0.00 99 994.7
20260905002452 41 0.0 0.0 0.00 0.22 0.00 99 994.7
20260904234449 42 0.0 0.0 0.00 0.22 0.00 99 994.9
20260904230449 43 0.0 0.0 0.00 0.22 0.00 99 995.2
20260904224449 43 0.0 0.0 0.00 0.22 0.00 99 995.2
20260904222449 43 0.0 0.0 0.00 0.22 0.00 99 995.2
20260904220447 44 0.0 0.0 0.00 0.22 0.00 99 995.4
20260904214449 45 0.0 0.0 0.00 0.22 0.00 99 995.6
20260904212119 45 0.0 0.0 0.00 0.22 0.00 99 995.7
20260904210119 46 0.0 0.0 0.00 0.22 0.00 99 995.8
20260904204448 46 0.0 0.0 0.00 0.22 0.22 99 995.9
20260904200450 47 0.0 0.0 0.00 0.22 0.22 98 996.0
20260904194449 48 0.0 0.0 0.00 0.22 0.22 97 996.1
20260904192448 49 0.0 0.0 0.00 0.22 0.22 97 996.2
20260904190448 50 0.0 0.0 0.00 0.22 0.22 97 996.2
20260904184448 52 0.0 0.0 0.00 0.22 0.22 96 996.3
20260904180447 54 0.0 0.0 0.00 0.22 0.22 93 996.5
20260904174448 54 0.0 0.0 0.00 0.22 0.22 91 996.5
20260904172447 55 0.0 0.0 0.00 0.22 0.22 88 996.6
20260904162448 57 0.0 0.0 0.00 0.22 0.22 80 996.7
20260904160119 56 0.0 0.0 0.00 0.24 0.22 86 996.7
20260904154447 56 0.0 0.0 0.00 0.24 0.22 86 996.7
20260904152447 56 0.0 0.0 0.00 0.24 0.22 83 996.7
20260904150447 56 0.0 0.0 0.00 0.24 0.22 82 996.9
20260904144449 56 0.0 0.0 0.00 0.24 0.22 80 996.9
20260904140448 60 0.0 0.0 0.00 0.24 0.22 60 997.1
20260904134447 60 0.0 0.0 0.00 0.24 0.22 58 997.2
20260904132446 60 0.0 0.0 0.00 0.24 0.22 62 997.3
20260904130445 60 0.0 0.0 0.00 0.24 0.22 59 997.4
20260904124447 60 0.0 0.0 0.00 0.24 0.22 64 997.5
20260904122447 60 0.0 0.0 0.00 0.24 0.22 62 997.6
20260904120447 60 0.0 0.0 0.00 0.24 0.22 63 997.7
20260904114447 59 0.0 0.0 0.00 0.24 0.22 65 997.9
20260904112446 60 0.0 0.0 0.00 0.24 0.22 64 998.0
20260904110447 59 0.0 0.0 0.00 0.24 0.22 71 998.1
20260904104446 61 0.0 0.0 0.00 0.24 0.22 63 998.2
20260904102116 59 0.0 0.0 0.00 0.24 0.22 59 998.3
20260904100446 58 0.0 0.0 0.00 0.24 0.22 70 998.3
20260904092447 53 0.0 0.0 0.07 0.24 0.22 93 998.8
20260904090447 52 0.0 0.0 0.07 0.24 0.22 95 998.8
20260904084447 51 0.0 0.0 0.13 0.17 0.15 97 998.8